LROP Weather Reports


time (UTC)temp
F
wind
direction
speed
knots
gust
knots
rain 1hr
in
rain 24hr
in
rain mn
in
humidity
%
barometer
mb
20260506034802 48 30 5.2 0.0 0.00 0.00 0.00 87 1015.0
20260506033302 48 30 5.2 0.0 0.00 0.00 0.00 87 1015.0
20260506031802 48 30 4.3 0.0 0.00 0.00 0.00 87 1015.0
20260506030301 48 30 4.3 0.0 0.00 0.00 0.00 87 1015.0
20260506024802 48 50 7.0 0.0 0.00 0.00 0.00 87 1014.0
20260506023302 48 50 7.0 0.0 0.00 0.00 0.00 87 1014.0
20260506021802 48 60 6.1 0.0 0.00 0.00 0.00 87 1014.0
20260506020302 48 60 6.1 0.0 0.00 0.00 0.00 87 1014.0
20260506014801 50 40 5.2 0.0 0.00 0.00 0.00 88 1014.0
20260506013302 50 40 5.2 0.0 0.00 0.00 0.00 88 1014.0
20260506011802 50 70 5.2 0.0 0.00 0.00 0.00 88 1014.0
20260506010302 50 70 5.2 0.0 0.00 0.00 0.00 88 1014.0
20260506004802 52 70 5.2 0.0 0.00 0.00 0.00 82 1014.0
20260506003415 52 70 6.1 0.0 0.00 0.00 0.00 88 1014.0
20260506001802 52 70 6.1 0.0 0.00 0.00 0.00 88 1014.0
20260506000302 52 70 6.1 0.0 0.00 0.00 0.00 88 1014.0
20260505234802 54 60 7.0 0.0 0.00 0.00 0.00 82 1014.0
20260505233301 54 60 7.0 0.0 0.00 0.00 0.00 82 1014.0
20260505231802 55 50 4.3 0.0 0.00 0.00 0.00 82 1014.0
20260505230302 55 50 4.3 0.0 0.00 0.00 0.00 82 1014.0
20260505224802 57 50 1.7 0.0 0.00 0.00 0.00 77 1014.0
20260505223302 57 50 1.7 0.0 0.00 0.00 0.00 77 1014.0
20260505221802 57 1.7 0.0 0.00 0.00 0.00 77 1014.0
20260505220302 57 1.7 0.0 0.00 0.00 0.00 77 1014.0
20260505214803 57 30 1.7 0.0 0.00 0.00 0.00 77 1014.0
20260505213302 57 30 1.7 0.0 0.00 0.00 0.00 77 1014.0
20260505211802 57 0 0.0 0.0 0.00 0.00 0.00 77 1014.0
20260505210302 57 0 0.0 0.0 0.00 0.00 0.00 77 1014.0
20260505204804 59 0 0.0 0.0 0.00 0.00 0.00 72 1014.0
20260505203301 59 0 0.0 0.0 0.00 0.00 0.00 72 1014.0
20260505201833 61 60 2.6 0.0 0.00 0.00 0.00 68 1014.0
20260505200302 61 60 2.6 0.0 0.00 0.00 0.00 68 1014.0
20260505194802 61 80 2.6 0.0 0.00 0.00 0.00 63 1014.0
20260505193302 61 80 2.6 0.0 0.00 0.00 0.00 63 1014.0
20260505191802 61 150 2.6 0.0 0.00 0.00 0.00 72 1014.0
20260505190301 61 150 2.6 0.0 0.00 0.00 0.00 72 1014.0
20260505184802 63 150 4.3 0.0 0.00 0.00 0.00 68 1014.0
20260505183302 63 150 4.3 0.0 0.00 0.00 0.00 68 1014.0
20260505181802 63 140 2.6 0.0 0.00 0.00 0.00 68 1013.0
20260505180302 63 140 2.6 0.0 0.00 0.00 0.00 68 1013.0
20260505173301 64 150 4.3 0.0 0.00 0.00 0.00 64 1013.0
20260505171802 66 210 2.6 0.0 0.00 0.00 0.00 64 1013.0
20260505170302 66 210 2.6 0.0 0.00 0.00 0.00 64 1013.0
20260505164802 68 210 4.3 0.0 0.00 0.00 0.00 60 1013.0
20260505163302 68 210 4.3 0.0 0.00 0.00 0.00 60 1013.0
20260505161802 70 230 2.6 0.0 0.00 0.00 0.00 53 1013.0
20260505160302 70 230 2.6 0.0 0.00 0.00 0.00 53 1013.0
20260505153302 72 0.9 0.0 0.00 0.00 0.00 53 1013.0
20260505151810 73 1.7 0.0 0.00 0.00 0.00 41 1014.0
20260505150302 73 1.7 0.0 0.00 0.00 0.00 41 1014.0
20260505140301 79 240 4.3 0.0 0.00 0.00 0.00 32 1014.0
20260505130302 77 4.3 0.0 0.00 0.00 0.00 34 1014.0
20260505124802 75 180 2.6 0.0 0.00 0.00 0.00 36 1014.0
20260505123302 75 180 2.6 0.0 0.00 0.00 0.00 36 1014.0
20260505121802 75 250 6.1 0.0 0.00 0.00 0.00 39 1014.0
20260505120305 77 2.6 0.0 0.00 0.00 0.00 36 1015.0
20260505114809 77 2.6 0.0 0.00 0.00 0.00 36 1015.0
20260505113332 77 2.6 0.0 0.00 0.00 0.00 36 1015.0
20260505111802 75 250 5.2 0.0 0.00 0.00 0.00 39 1015.0
20260505110302 75 250 5.2 0.0 0.00 0.00 0.00 39 1015.0
20260505101803 73 2.6 0.0 0.00 0.00 0.00 38 1015.0
20260505100302 73 2.6 0.0 0.00 0.00 0.00 38 1015.0
20260505094803 73 4.3 0.0 0.00 0.00 0.00 41 1015.0
20260505093302 73 4.3 0.0 0.00 0.00 0.00 41 1015.0
20260505091802 72 230 2.6 0.0 0.00 0.00 0.00 44 1016.0
20260505090302 72 230 2.6 0.0 0.00 0.00 0.00 44 1016.0
20260505084802 72 2.6 0.0 0.00 0.00 0.00 44 1016.0
20260505083302 72 2.6 0.0 0.00 0.00 0.00 44 1016.0
20260505081802 68 120 2.6 0.0 0.00 0.00 0.00 53 1016.0
20260505080302 68 120 2.6 0.0 0.00 0.00 0.00 53 1016.0
20260505074815 66 1.7 0.0 0.00 0.00 0.00 60 1016.0
20260505073302 66 1.7 0.0 0.00 0.00 0.00 60 1016.0
20260505071802 64 0.9 0.0 0.00 0.00 0.00 60 1016.0
20260505070302 64 0.9 0.0 0.00 0.00 0.00 60 1016.0
20260505064802 63 90 2.6 0.0 0.00 0.00 0.00 64 1016.0
20260505063302 63 90 2.6 0.0 0.00 0.00 0.00 64 1016.0
20260505061802 61 1.7 0.0 0.00 0.00 0.00 68 1016.0
20260505060302 61 1.7 0.0 0.00 0.00 0.00 68 1016.0
20260505054802 61 0.9 0.0 0.00 0.00 0.00 63 1016.0
20260505053302 61 0.9 0.0 0.00 0.00 0.00 63 1016.0
20260505051802 55 20 2.6 0.0 0.00 0.00 0.00 77 1016.0
20260505050302 55 20 2.6 0.0 0.00 0.00 0.00 77 1016.0
20260505040301 50 1.7 0.0 0.00 0.00 0.00 88 1015.0